• In Russia
  • List of Countries
  • For 7 days
  • Water Temperature
  • Weather Map
  • Weather Widgets
  • user-avatar
    Login

    Hourly Weather Canillo

    Today, 23 February, Sunday

    Time Temperature Precipitation Wind Pressure Humidity
    00:00 +4°C° 0 mm 1 mps 627 mmHg 38%
    01:00 +4°C° 0 mm 1 mps 627 mmHg 38%
    02:00 +4°C° 0 mm 1 mps 626 mmHg 38%
    03:00 +4°C° 0 mm 1 mps 626 mmHg 38%
    04:00 +4°C° 0 mm 1 mps 626 mmHg 38%
    05:00 +4°C° 0 mm 1 mps 626 mmHg 39%
    06:00 +4°C° 0 mm 1 mps 626 mmHg 39%
    07:00 +6°C° 0 mm 1 mps 627 mmHg 40%
    08:00 +9°C° 0 mm 1 mps 628 mmHg 41%
    09:00 +10°C° 0 mm 0 mps 629 mmHg 42%
    10:00 +11°C° 0 mm 0 mps 629 mmHg 39%
    11:00 +14°C° 0 mm 1 mps 630 mmHg 36%
    12:00 +15°C° 0 mm 1 mps 630 mmHg 34%
    13:00 +15°C° 0 mm 1 mps 630 mmHg 36%
    14:00 +14°C° 0 mm 1 mps 629 mmHg 38%
    15:00 +14°C° 0 mm 1 mps 628 mmHg 41%
    16:00 +11°C° 0 mm 1 mps 627 mmHg 48%
    17:00 +9°C° 0 mm 1 mps 627 mmHg 56%
    18:00 +6°C° 0 mm 1 mps 626 mmHg 63%
    19:00 +6°C° 0 mm 1 mps 625 mmHg 54%
    20:00 +6°C° 0 mm 1 mps 625 mmHg 44%
    21:00 +4°C° 0 mm 2 mps 625 mmHg 35%
    22:00 +4°C° 0 mm 2 mps 625 mmHg 31%
    23:00 +4°C° 0 mm 2 mps 625 mmHg 28%

    Tomorrow, 24 February, Monday

    Time Temperature Precipitation Wind Pressure Humidity
    00:00 +4°C° 0 mm 2 mps 625 mmHg 25%
    01:00 +5°C° 0 mm 1 mps 625 mmHg 24%
    02:00 +5°C° 0 mm 1 mps 624 mmHg 24%
    03:00 +5°C° 0 mm 1 mps 624 mmHg 23%
    04:00 +5°C° 0 mm 1 mps 623 mmHg 24%
    05:00 +4°C° 0 mm 1 mps 623 mmHg 26%
    06:00 +4°C° 0 mm 1 mps 623 mmHg 27%
    07:00 +6°C° 0 mm 1 mps 624 mmHg 29%
    08:00 +8°C° 0 mm 1 mps 624 mmHg 30%
    09:00 +10°C° 0 mm 0 mps 625 mmHg 32%
    10:00 +11°C° 0 mm 0 mps 625 mmHg 30%
    11:00 +14°C° 0 mm 1 mps 625 mmHg 28%
    12:00 +15°C° 0 mm 1 mps 625 mmHg 26%
    13:00 +15°C° 0 mm 1 mps 625 mmHg 28%
    14:00 +14°C° 0 mm 1 mps 624 mmHg 30%
    15:00 +14°C° 0 mm 1 mps 624 mmHg 32%
    16:00 +11°C° 0 mm 1 mps 622 mmHg 40%
    17:00 +9°C° 0 mm 1 mps 621 mmHg 48%
    18:00 +6°C° 0 mm 1 mps 620 mmHg 56%
    19:00 +6°C° 0 mm 1 mps 620 mmHg 49%
    20:00 +5°C° 0 mm 1 mps 619 mmHg 42%
    21:00 +4°C° 0 mm 2 mps 619 mmHg 36%
    22:00 +3°C° 0 mm 2 mps 619 mmHg 35%
    23:00 +4°C° 0 mm 1 mps 619 mmHg 35%

    Day after tomorrow, 25 February, Tuesday

    Time Temperature Precipitation Wind Pressure Humidity
    00:00 +4°C° 0 mm 1 mps 618 mmHg 34%
    01:00 +4°C° 0 mm 1 mps 618 mmHg 36%
    02:00 +3°C° 0 mm 1 mps 617 mmHg 37%
    03:00 +3°C° 0 mm 1 mps 617 mmHg 39%
    04:00 +3°C° 0 mm 1 mps 617 mmHg 39%
    05:00 +3°C° 0 mm 1 mps 616 mmHg 39%
    06:00 +3°C° 0 mm 1 mps 616 mmHg 40%
    07:00 +4°C° 0 mm 1 mps 617 mmHg 41%
    08:00 +5°C° 0 mm 1 mps 617 mmHg 42%
    09:00 +6°C° 0 mm 1 mps 618 mmHg 42%
    10:00 +5°C° 0 mm 2 mps 618 mmHg 45%
    11:00 +5°C° 0 mm 2 mps 617 mmHg 48%
    12:00 +6°C° 0 mm 2 mps 617 mmHg 51%
    13:00 +5°C° 0.1 mm 2 mps 617 mmHg 57%
    14:00 +5°C° 0.1 mm 2 mps 616 mmHg 63%
    15:00 +5°C° 0.1 mm 2 mps 616 mmHg 69%
    16:00 +4°C° 0.1 mm 2 mps 615 mmHg 76%
    17:00 +2°C° 0.1 mm 2 mps 615 mmHg 82%
    18:00 +1°C° 0.1 mm 2 mps 615 mmHg 89%
    19:00 +1°C° 0.1 mm 2 mps 615 mmHg 89%
    20:00 -1°C° 0.1 mm 2 mps 615 mmHg 90%
    21:00 -1°C° 0.1 mm 2 mps 615 mmHg 90%
    22:00 -2°C° 0 mm 2 mps 615 mmHg 90%
    23:00 -2°C° 0 mm 2 mps 615 mmHg 89%

    26 February, Wednesday

    Time Temperature Precipitation Wind Pressure Humidity
    00:00 -2°C° 0 mm 2 mps 615 mmHg 89%
    01:00 -3°C° 0 mm 2 mps 614 mmHg 87%
    02:00 -3°C° 0 mm 2 mps 614 mmHg 86%
    03:00 -4°C° 0 mm 2 mps 613 mmHg 84%
    04:00 -4°C° 0 mm 2 mps 613 mmHg 82%
    05:00 -4°C° 0 mm 2 mps 613 mmHg 79%
    06:00 -4°C° 0 mm 2 mps 612 mmHg 76%
    07:00 -3°C° 0.1 mm 2 mps 613 mmHg 72%
    08:00 -2°C° 0.1 mm 3 mps 614 mmHg 67%
    09:00 -1°C° 0.1 mm 3 mps 615 mmHg 63%
    10:00 0°C° 0.1 mm 3 mps 615 mmHg 59%
    11:00 0°C° 0.1 mm 3 mps 615 mmHg 56%
    12:00 0°C° 0.1 mm 4 mps 615 mmHg 52%
    13:00 0°C° 0.1 mm 4 mps 615 mmHg 53%
    14:00 -1°C° 0.1 mm 4 mps 615 mmHg 54%
    15:00 -1°C° 0.1 mm 4 mps 614 mmHg 55%
    16:00 -2°C° 0.3 mm 3 mps 614 mmHg 64%
    17:00 -4°C° 0.3 mm 3 mps 614 mmHg 72%
    18:00 -5°C° 0.3 mm 3 mps 614 mmHg 80%
    19:00 -6°C° 0.2 mm 3 mps 614 mmHg 81%
    20:00 -5°C° 0.2 mm 2 mps 615 mmHg 82%
    21:00 -5°C° 0.2 mm 2 mps 615 mmHg 82%
    22:00 -6°C° 0 mm 2 mps 615 mmHg 81%
    23:00 -4°C° 0 mm 1 mps 615 mmHg 80%

    27 February, Thursday

    Time Temperature Precipitation Wind Pressure Humidity
    00:00 -4°C° 0 mm 1 mps 615 mmHg 79%
    01:00 -4°C° 0 mm 1 mps 615 mmHg 73%
    02:00 -4°C° 0 mm 1 mps 615 mmHg 66%
    03:00 -4°C° 0 mm 1 mps 615 mmHg 60%
    04:00 -4°C° 0 mm 1 mps 614 mmHg 59%
    05:00 -4°C° 0 mm 1 mps 614 mmHg 59%
    06:00 -4°C° 0 mm 1 mps 614 mmHg 58%
    07:00 -2°C° 0 mm 1 mps 615 mmHg 56%
    08:00 0°C° 0 mm 1 mps 616 mmHg 53%
    09:00 +2°C° 0 mm 1 mps 617 mmHg 51%
    10:00 +3°C° 0 mm 1 mps 617 mmHg 48%
    11:00 +5°C° 0 mm 1 mps 617 mmHg 46%
    12:00 +6°C° 0 mm 2 mps 618 mmHg 44%
    13:00 +6°C° 0.2 mm 1 mps 617 mmHg 52%
    14:00 +6°C° 0.2 mm 1 mps 617 mmHg 60%
    15:00 +5°C° 0.2 mm 1 mps 616 mmHg 68%
    16:00 +4°C° 0.2 mm 1 mps 616 mmHg 76%
    17:00 +3°C° 0.2 mm 1 mps 615 mmHg 84%
    18:00 +2°C° 0.2 mm 1 mps 615 mmHg 92%
    19:00 +2°C° 0.1 mm 1 mps 615 mmHg 93%
    20:00 +2°C° 0.1 mm 1 mps 616 mmHg 94%
    21:00 +2°C° 0.1 mm 1 mps 616 mmHg 95%
    22:00 +2°C° 0.1 mm 1 mps 616 mmHg 95%
    23:00 +2°C° 0.1 mm 1 mps 616 mmHg 95%

    28 February, Friday

    Time Temperature Precipitation Wind Pressure Humidity
    00:00 +2°C° 0.1 mm 1 mps 616 mmHg 96%
    01:00 +2°C° 0 mm 1 mps 616 mmHg 95%
    02:00 +2°C° 0 mm 1 mps 616 mmHg 94%
    03:00 +2°C° 0 mm 1 mps 615 mmHg 93%
    04:00 +2°C° 0 mm 1 mps 615 mmHg 91%
    05:00 +1°C° 0 mm 1 mps 615 mmHg 90%
    06:00 +1°C° 0 mm 1 mps 614 mmHg 88%
    07:00 +2°C° 0 mm 1 mps 615 mmHg 85%
    08:00 +4°C° 0 mm 1 mps 615 mmHg 82%
    09:00 +5°C° 0 mm 1 mps 616 mmHg 79%
    10:00 +5°C° 0 mm 2 mps 616 mmHg 72%
    11:00 +6°C° 0 mm 2 mps 616 mmHg 66%
    12:00 +7°C° 0 mm 2 mps 616 mmHg 59%
    13:00 +7°C° 0 mm 2 mps 616 mmHg 58%
    14:00 +7°C° 0 mm 2 mps 615 mmHg 56%
    15:00 +7°C° 0 mm 2 mps 614 mmHg 55%
    16:00 +6°C° 0 mm 2 mps 614 mmHg 61%
    17:00 +4°C° 0 mm 2 mps 613 mmHg 68%
    18:00 +2°C° 0 mm 2 mps 612 mmHg 74%
    19:00 +2°C° 0 mm 2 mps 612 mmHg 75%
    20:00 +1°C° 0 mm 2 mps 611 mmHg 76%
    21:00 +1°C° 0 mm 2 mps 611 mmHg 77%
    22:00 +1°C° 0 mm 2 mps 611 mmHg 75%
    23:00 -1°C° 0 mm 2 mps 611 mmHg 72%
    Show more